星链-2046 (STARLINK-2046 )

导读 | 星芒AI

STARLINK-2046 是 SpaceX Starlink 项目中的一颗低轨通信卫星,旨在为全球用户提供高速互联网服务。该卫星采用先进推进和通信技术,具备自动避碰功能,以确保在拥挤的近地轨道上安全运行。作为 Starlink 卫星群的一部分,它有助于扩大覆盖范围,提升网络连接质量,特别是在偏远和网络基础设施薄弱的地区。STARLINK-2046 的发射和运行体现了 SpaceX 在构建全球宽带网络方面的持续努力。

基本信息
目录编号:
47354
目录名称:
STARLINK-2046
国际标识:
2021-005F
轨道中心:
EARTH
卫星名称:
星链-2046
卫星全名:
星链-2046 (STARLINK-2046 )
卫星状态:
在轨 (已飞行1791 天)
发射日期:
2021-01-20 UTC
国别 :
美国 (US)
星等 :
--
轨道信息
数据来源 国际轨道数据 AOE轨道数据
星历时间 2025-12-15T18:13:28+0800
1天前
查看轨道信息
2025-12-15T08:00:00+0800
1天前
查看轨道信息
半长轴 6925.31km 6925.363km
偏心率 0.0001862 0.0001715
轨道倾角 53.054° 53.053°
近地点辐角 75.700° 85.733°
升交点赤经 45.433° 47.346°
平近点角 284.420° 122.765°
近地点 545.885km 546.04km
远地点 548.465km 548.416km
周期 95.591分钟 95.592分钟
每日圈数 15.064129 15.063955
详细信息
固有亮度:
5
最大亮度:
2.5
卫星平台:
Starlink V1.0
覆盖范围:
全球
运营商:
太空探索技术公司
运营商所在国:
美国
制造商(研发单位):
太空探索技术公司
制造商所在国:
美国
使用方式:
暂无
卫星简介
星链(Starlink)计划是由太空探索技术公司(SpaceX)提出的一个巨型低轨卫星互联网星座项目,计划在2019年至2024年间在太空搭建由约1.2万颗卫星组成的“星链”网络,其中1584颗将部署在地球上空550千米处的近地轨道,并从2020年开始工作。该卫星仍在工作。
2D轨道图
3D轨道图
轨道高度分析图
轨道倾角分析图
轨道综合分析图
查看轨道综合分析图